Tracking 29892 objects as of 21-Nov-2024
HD Live streaming from Space Station
objects crossing your sky now

ARIANE 44L R/B

Track ARIANE 44L R/B now!


NORAD ID: 20717
Int'l Code: 1990-063C
Perigee: 388.0 km
Apogee: 34,539.5 km
Inclination: 4.4 °
Period: 610.3 minutes
Semi major axis: 23834 km
RCS: 33.6614 m2 (large)
Launch date: July 24, 1990
Source: France (FR)
Launch site: FRENCH GUIANA (FRGUI)

Note: This is a ROCKET BODY
Your satellite tracking list
Your tracking list is empty




NASA's NSSDC Master Catalog

Two Line Element Set (TLE):
1 20717U 90063C   24325.54502404  .00002173  00000-0  43620-2 0  9995
2 20717   4.4062   4.4232 7164243 272.4076  14.5544  2.35932207282957
Source of the keplerian elements: AFSPC